| time (UTC) | temp C | wind direction | speed KPH | gust KPH | rain 1hr cm | rain 24hr cm | rain mn cm | humidity % | barometer mb |
| 20260506204712 | 26 | 179 | 20.9 | 35.4 | 0.00 | 0.00 | 0.00 | 68 | 1014.2 |
| 20260506204209 | 26 | 156 | 14.5 | 33.8 | 0.00 | 0.00 | 0.00 | 68 | 1014.2 |
| 20260506203707 | 26 | 157 | 19.3 | 37.0 | 0.00 | 0.00 | 0.00 | 69 | 1014.2 |
| 20260506203204 | 26 | 159 | 25.7 | 37.0 | 0.00 | 0.00 | 0.00 | 68 | 1014.2 |
| 20260506202701 | 26 | 197 | 14.5 | 33.8 | 0.00 | 0.00 | 0.00 | 69 | 1014.2 |
| 20260506202156 | 26 | 184 | 17.7 | 33.8 | 0.00 | 0.00 | 0.00 | 68 | 1013.8 |
| 20260506201649 | 26 | 177 | 20.9 | 33.8 | 0.00 | 0.00 | 0.00 | 68 | 1014.2 |
| 20260506201145 | 26 | 200 | 24.1 | 37.0 | 0.00 | 0.00 | 0.00 | 68 | 1014.5 |
| 20260506200642 | 26 | 176 | 22.5 | 37.0 | 0.00 | 0.00 | 0.00 | 68 | 1014.5 |
| 20260506200138 | 26 | 164 | 19.3 | 33.8 | 0.00 | 0.00 | 0.00 | 68 | 1014.5 |
| 20260506195635 | 26 | 185 | 22.5 | 33.8 | 0.00 | 0.00 | 0.00 | 68 | 1014.5 |
| 20260506195131 | 26 | 158 | 22.5 | 35.4 | 0.00 | 0.00 | 0.00 | 68 | 1014.2 |
| 20260506194629 | 27 | 192 | 19.3 | 35.4 | 0.00 | 0.00 | 0.00 | 67 | 1014.5 |
| 20260506194125 | 27 | 172 | 17.7 | 33.8 | 0.00 | 0.00 | 0.00 | 67 | 1014.5 |
| 20260506193623 | 27 | 156 | 24.1 | 35.4 | 0.00 | 0.00 | 0.00 | 68 | 1014.5 |
| 20260506193120 | 26 | 208 | 17.7 | 35.4 | 0.00 | 0.00 | 0.00 | 68 | 1014.9 |
| 20260506192617 | 26 | 194 | 24.1 | 35.4 | 0.00 | 0.00 | 0.00 | 67 | 1014.5 |
| 20260506192112 | 27 | 174 | 20.9 | 32.2 | 0.00 | 0.00 | 0.00 | 67 | 1014.5 |
| 20260506191609 | 26 | 139 | 20.9 | 33.8 | 0.00 | 0.00 | 0.00 | 66 | 1014.9 |
| 20260506191105 | 27 | 177 | 19.3 | 33.8 | 0.00 | 0.00 | 0.00 | 66 | 1014.9 |
| 20260506190603 | 27 | 186 | 24.1 | 33.8 | 0.00 | 0.00 | 0.00 | 67 | 1014.9 |
| 20260506190059 | 27 | 187 | 17.7 | 32.2 | 0.00 | 0.00 | 0.00 | 67 | 1014.9 |
| 20260506185557 | 27 | 175 | 20.9 | 32.2 | 0.00 | 0.00 | 0.00 | 67 | 1015.2 |
| 20260506185053 | 27 | 174 | 19.3 | 33.8 | 0.00 | 0.00 | 0.00 | 67 | 1015.2 |
| 20260506184550 | 27 | 175 | 24.1 | 33.8 | 0.00 | 0.00 | 0.00 | 67 | 1015.2 |
| 20260506184047 | 27 | 182 | 20.9 | 33.8 | 0.00 | 0.00 | 0.00 | 66 | 1015.2 |
| 20260506183543 | 27 | 168 | 25.7 | 33.8 | 0.00 | 0.00 | 0.00 | 66 | 1015.2 |
| 20260506183035 | 27 | 184 | 24.1 | 37.0 | 0.00 | 0.00 | 0.00 | 66 | 1015.2 |
| 20260506182532 | 27 | 188 | 24.1 | 37.0 | 0.00 | 0.00 | 0.00 | 66 | 1015.2 |
| 20260506182029 | 27 | 180 | 24.1 | 37.0 | 0.00 | 0.00 | 0.00 | 65 | 1015.2 |
| 20260506181527 | 27 | 189 | 22.5 | 33.8 | 0.00 | 0.00 | 0.00 | 65 | 1015.5 |
| 20260506181024 | 27 | 156 | 22.5 | 33.8 | 0.00 | 0.00 | 0.00 | 65 | 1015.5 |
| 20260506180520 | 27 | 189 | 20.9 | 33.8 | 0.00 | 0.00 | 0.00 | 64 | 1015.2 |
| 20260506180017 | 27 | 187 | 22.5 | 27.4 | 0.00 | 0.00 | 0.00 | 63 | 1015.5 |
| 20260506175513 | 28 | 157 | 16.1 | 27.4 | 0.00 | 0.00 | 0.00 | 63 | 1015.5 |
| 20260506175010 | 28 | 159 | 16.1 | 32.2 | 0.00 | 0.00 | 0.00 | 62 | 1015.5 |
| 20260506174508 | 28 | 155 | 16.1 | 32.2 | 0.00 | 0.00 | 0.00 | 60 | 1015.9 |
| 20260506174004 | 28 | 202 | 12.9 | 22.5 | 0.00 | 0.00 | 0.00 | 61 | 1015.5 |
| 20260506173502 | 28 | 185 | 12.9 | 22.5 | 0.00 | 0.00 | 0.00 | 61 | 1015.5 |
| 20260506172959 | 28 | 152 | 8.0 | 22.5 | 0.00 | 0.00 | 0.00 | 59 | 1016.2 |
| 20260506172456 | 29 | 184 | 12.9 | 20.9 | 0.00 | 0.00 | 0.00 | 59 | 1015.9 |
| 20260506171952 | 29 | 172 | 12.9 | 17.7 | 0.00 | 0.00 | 0.00 | 54 | 1016.6 |
| 20260506171450 | 29 | 174 | 8.0 | 17.7 | 0.00 | 0.00 | 0.00 | 55 | 1016.2 |
| 20260506170947 | 28 | 163 | 3.2 | 22.5 | 0.00 | 0.00 | 0.00 | 51 | 1016.2 |
| 20260506170443 | 28 | 180 | 12.9 | 22.5 | 0.00 | 0.00 | 0.00 | 59 | 1016.2 |
| 20260506165936 | 29 | 164 | 9.7 | 24.1 | 0.00 | 0.00 | 0.00 | 57 | 1016.6 |
| 20260506165434 | 28 | 257 | 4.8 | 24.1 | 0.00 | 0.00 | 0.00 | 52 | 1016.6 |
| 20260506164929 | 28 | 179 | 17.7 | 22.5 | 0.00 | 0.00 | 0.00 | 54 | 1016.6 |
| 20260506164426 | 28 | 249 | 9.7 | 24.1 | 0.00 | 0.00 | 0.00 | 53 | 1016.6 |
| 20260506163919 | 28 | 215 | 12.9 | 24.1 | 0.00 | 0.00 | 0.00 | 53 | 1016.6 |
| 20260506163414 | 28 | 222 | 8.0 | 22.5 | 0.00 | 0.00 | 0.00 | 54 | 1016.6 |
| 20260506162909 | 28 | 215 | 14.5 | 22.5 | 0.00 | 0.00 | 0.00 | 54 | 1016.6 |
| 20260506162407 | 28 | 158 | 3.2 | 20.9 | 0.00 | 0.00 | 0.00 | 54 | 1016.9 |
| 20260506161904 | 28 | 176 | 11.3 | 20.9 | 0.00 | 0.00 | 0.00 | 55 | 1016.6 |
| 20260506161402 | 28 | 157 | 8.0 | 17.7 | 0.00 | 0.00 | 0.00 | 54 | 1016.6 |
| 20260506160859 | 27 | 330 | 0.0 | 20.9 | 0.00 | 0.00 | 0.00 | 56 | 1016.9 |
| 20260506160356 | 27 | 194 | 14.5 | 20.9 | 0.00 | 0.00 | 0.00 | 56 | 1016.6 |
| 20260506155854 | 27 | 286 | 6.4 | 16.1 | 0.00 | 0.00 | 0.00 | 55 | 1017.2 |
| 20260506155350 | 27 | 165 | 11.3 | 12.9 | 0.00 | 0.00 | 0.00 | 56 | 1016.9 |
| 20260506153508 | 27 | 165 | 3.2 | 12.9 | 0.00 | 0.00 | 0.00 | 57 | 1016.9 |
| 20260506153005 | 26 | 148 | 4.8 | 12.9 | 0.00 | 0.00 | 0.00 | 58 | 1017.2 |
| 20260506152502 | 26 | 80 | 3.2 | 17.7 | 0.00 | 0.00 | 0.00 | 59 | 1016.9 |
| 20260506152000 | 26 | 211 | 8.0 | 17.7 | 0.00 | 0.00 | 0.00 | 60 | 1017.2 |
| 20260506151458 | 26 | 174 | 8.0 | 14.5 | 0.00 | 0.00 | 0.00 | 59 | 1017.2 |
| 20260506150955 | 26 | 174 | 8.0 | 14.5 | 0.00 | 0.00 | 0.00 | 59 | 1017.2 |
| 20260506150450 | 26 | 264 | 4.8 | 16.1 | 0.00 | 0.00 | 0.00 | 59 | 1017.2 |
| 20260506145948 | 26 | 171 | 4.8 | 17.7 | 0.00 | 0.00 | 0.00 | 59 | 1017.2 |
| 20260506145444 | 26 | 189 | 14.5 | 17.7 | 0.00 | 0.00 | 0.00 | 60 | 1016.9 |
| 20260506144942 | 26 | 310 | 3.2 | 20.9 | 0.00 | 0.00 | 0.00 | 60 | 1016.6 |
| 20260506144438 | 26 | 274 | 3.2 | 20.9 | 0.00 | 0.00 | 0.00 | 61 | 1016.9 |
| 20260506143937 | 25 | 133 | 4.8 | 11.3 | 0.00 | 0.00 | 0.00 | 61 | 1016.9 |
| 20260506143433 | 25 | 119 | 0.0 | 11.3 | 0.00 | 0.00 | 0.00 | 61 | 1016.9 |
| 20260506142932 | 25 | 96 | 3.2 | 16.1 | 0.00 | 0.00 | 0.00 | 61 | 1016.6 |
| 20260506142429 | 25 | 324 | 4.8 | 16.1 | 0.00 | 0.00 | 0.00 | 62 | 1016.6 |
| 20260506141927 | 25 | 179 | 6.4 | 14.5 | 0.00 | 0.00 | 0.00 | 61 | 1016.6 |
| 20260506141425 | 25 | 255 | 4.8 | 16.1 | 0.00 | 0.00 | 0.00 | 63 | 1016.6 |
| 20260506140923 | 25 | 212 | 6.4 | 16.1 | 0.00 | 0.00 | 0.00 | 62 | 1016.6 |
| 20260506140420 | 25 | 117 | 0.0 | 11.3 | 0.00 | 0.00 | 0.00 | 63 | 1016.9 |
| 20260506135916 | 25 | 227 | 3.2 | 12.9 | 0.00 | 0.00 | 0.00 | 64 | 1016.9 |
| 20260506135414 | 24 | 166 | 4.8 | 16.1 | 0.00 | 0.00 | 0.00 | 64 | 1016.6 |
| 20260506134910 | 24 | 284 | 1.6 | 16.1 | 0.00 | 0.00 | 0.00 | 65 | 1016.9 |
| 20260506134406 | 24 | 261 | 3.2 | 14.5 | 0.00 | 0.00 | 0.00 | 66 | 1016.6 |
| 20260506133903 | 24 | 127 | 1.6 | 14.5 | 0.00 | 0.00 | 0.00 | 67 | 1016.6 |
| 20260506133400 | 24 | 181 | 4.8 | 16.1 | 0.00 | 0.00 | 0.00 | 68 | 1016.6 |
| 20260506132856 | 23 | 287 | 8.0 | 16.1 | 0.00 | 0.00 | 0.00 | 69 | 1016.2 |
| 20260506132353 | 23 | 132 | 4.8 | 22.5 | 0.00 | 0.00 | 0.00 | 70 | 1016.2 |
| 20260506131852 | 23 | 184 | 11.3 | 22.5 | 0.00 | 0.00 | 0.00 | 71 | 1016.2 |
| 20260506131348 | 23 | 143 | 3.2 | 16.1 | 0.00 | 0.00 | 0.00 | 71 | 1016.6 |
| 20260506130845 | 23 | 267 | 3.2 | 16.1 | 0.00 | 0.00 | 0.00 | 72 | 1016.2 |
| 20260506130341 | 23 | 222 | 8.0 | 11.3 | 0.00 | 0.00 | 0.00 | 74 | 1016.2 |
| 20260506125839 | 23 | 245 | 8.0 | 24.1 | 0.00 | 0.00 | 0.00 | 75 | 1016.6 |
| 20260506125337 | 23 | 145 | 3.2 | 24.1 | 0.00 | 0.00 | 0.00 | 76 | 1016.6 |
| 20260506124835 | 22 | 202 | 4.8 | 12.9 | 0.00 | 0.00 | 0.00 | 77 | 1016.2 |
| 20260506124332 | 22 | 17 | 1.6 | 11.3 | 0.00 | 0.00 | 0.00 | 79 | 1016.6 |
| 20260506123830 | 22 | 108 | 4.8 | 9.7 | 0.00 | 0.00 | 0.00 | 82 | 1016.2 |
| 20260506123328 | 22 | 113 | 1.6 | 9.7 | 0.00 | 0.00 | 0.00 | 84 | 1016.6 |
| 20260506122825 | 22 | 125 | 4.8 | 11.3 | 0.00 | 0.00 | 0.00 | 86 | 1016.2 |
| 20260506122322 | 21 | 176 | 4.8 | 11.3 | 0.00 | 0.00 | 0.00 | 87 | 1016.2 |
| 20260506121820 | 21 | 16 | 1.6 | 12.9 | 0.00 | 0.00 | 0.00 | 88 | 1015.9 |
| 20260506121317 | 21 | 125 | 1.6 | 12.9 | 0.00 | 0.00 | 0.00 | 89 | 1016.2 |
| 20260506120814 | 21 | 162 | 3.2 | 8.0 | 0.00 | 0.00 | 0.00 | 89 | 1016.2 |
| 20260506120312 | 21 | 94 | 1.6 | 8.0 | 0.00 | 0.00 | 0.00 | 90 | 1016.6 |
| 20260506115809 | 20 | 111 | 1.6 | 9.7 | 0.00 | 0.00 | 0.00 | 91 | 1016.2 |
| 20260506115307 | 20 | 171 | 6.4 | 9.7 | 0.00 | 0.00 | 0.00 | 91 | 1016.2 |
| 20260506114804 | 20 | 112 | 1.6 | 4.8 | 0.00 | 0.00 | 0.00 | 91 | 1016.2 |
| 20260506114302 | 19 | 109 | 0.0 | 3.2 | 0.00 | 0.00 | 0.00 | 92 | 1016.2 |
| 20260506113800 | 19 | 109 | 0.0 | 1.6 | 0.00 | 0.00 | 0.00 | 92 | 1015.9 |
| 20260506113258 | 19 | 108 | 0.0 | 1.6 | 0.00 | 0.00 | 0.00 | 92 | 1015.9 |
| 20260506112754 | 18 | 99 | 0.0 | 1.6 | 0.00 | 0.00 | 0.00 | 93 | 1015.9 |
| 20260506112252 | 18 | 100 | 0.0 | 1.6 | 0.00 | 0.00 | 0.00 | 93 | 1015.9 |
| 20260506111749 | 18 | 100 | 0.0 | 1.6 | 0.00 | 0.00 | 0.00 | 92 | 1015.5 |
| 20260506111247 | 18 | 100 | 0.0 | 1.6 | 0.00 | 0.00 | 0.00 | 92 | 1015.9 |
| 20260506110743 | 17 | 100 | 0.0 | 1.6 | 0.00 | 0.00 | 0.00 | 92 | 1015.5 |
| 20260506110241 | 17 | 100 | 0.0 | 0.0 | 0.00 | 0.00 | 0.00 | 92 | 1015.5 |
| 20260506105737 | 17 | 100 | 0.0 | 0.0 | 0.00 | 0.00 | 0.00 | 92 | 1015.5 |
| 20260506105234 | 17 | 114 | 0.0 | 0.0 | 0.00 | 0.00 | 0.00 | 92 | 1015.5 |
| 20260506104732 | 17 | 114 | 0.0 | 0.0 | 0.00 | 0.00 | 0.00 | 92 | 1015.5 |
| 20260506104230 | 17 | 114 | 0.0 | 0.0 | 0.00 | 0.00 | 0.00 | 92 | 1015.5 |
| 20260506103727 | 17 | 114 | 0.0 | 0.0 | 0.00 | 0.00 | 0.00 | 92 | 1015.5 |
| 20260506103224 | 17 | 114 | 0.0 | 0.0 | 0.00 | 0.00 | 0.00 | 91 | 1015.5 |
| 20260506102722 | 17 | 114 | 0.0 | 0.0 | 0.00 | 0.00 | 0.00 | 91 | 1015.5 |
| 20260506102220 | 17 | 114 | 0.0 | 0.0 | 0.00 | 0.00 | 0.00 | 91 | 1015.5 |
| 20260506101716 | 17 | 114 | 0.0 | 0.0 | 0.00 | 0.00 | 0.00 | 91 | 1015.5 |
| 20260506101212 | 17 | 114 | 0.0 | 0.0 | 0.00 | 0.00 | 0.00 | 91 | 1015.5 |
| 20260506100711 | 17 | 114 | 0.0 | 0.0 | 0.00 | 0.00 | 0.00 | 91 | 1015.5 |
| 20260506100208 | 18 | 114 | 0.0 | 0.0 | 0.00 | 0.00 | 0.00 | 91 | 1015.5 |
| 20260506095707 | 18 | 114 | 0.0 | 0.0 | 0.00 | 0.00 | 0.00 | 91 | 1015.5 |
| 20260506095203 | 18 | 114 | 0.0 | 0.0 | 0.00 | 0.00 | 0.00 | 91 | 1015.5 |
| 20260506094700 | 18 | 114 | 0.0 | 0.0 | 0.00 | 0.00 | 0.00 | 90 | 1015.5 |
| 20260506094158 | 18 | 114 | 0.0 | 0.0 | 0.00 | 0.00 | 0.00 | 90 | 1015.5 |
| 20260506093657 | 18 | 114 | 0.0 | 0.0 | 0.00 | 0.00 | 0.00 | 90 | 1015.5 |
| 20260506093153 | 18 | 114 | 0.0 | 0.0 | 0.00 | 0.00 | 0.00 | 90 | 1015.5 |
| 20260506092651 | 18 | 114 | 0.0 | 0.0 | 0.00 | 0.00 | 0.00 | 90 | 1015.5 |
| 20260506092148 | 18 | 114 | 0.0 | 0.0 | 0.00 | 0.00 | 0.00 | 90 | 1015.5 |
| 20260506091646 | 18 | 114 | 0.0 | 0.0 | 0.00 | 0.00 | 0.00 | 90 | 1015.2 |
| 20260506091143 | 18 | 114 | 0.0 | 0.0 | 0.00 | 0.00 | 0.00 | 90 | 1015.5 |
| 20260506090641 | 18 | 114 | 0.0 | 0.0 | 0.00 | 0.00 | 0.00 | 90 | 1015.5 |
| 20260506090137 | 18 | 114 | 0.0 | 0.0 | 0.00 | 0.00 | 0.00 | 89 | 1015.5 |
| 20260506085634 | 18 | 114 | 0.0 | 0.0 | 0.00 | 0.00 | 0.00 | 89 | 1015.2 |
| 20260506085131 | 18 | 114 | 0.0 | 1.6 | 0.00 | 0.00 | 0.00 | 89 | 1015.2 |
| 20260506084627 | 18 | 114 | 0.0 | 1.6 | 0.00 | 0.00 | 0.00 | 89 | 1015.2 |
| 20260506084124 | 18 | 113 | 0.0 | 1.6 | 0.00 | 0.00 | 0.00 | 89 | 1015.2 |
| 20260506083621 | 18 | 113 | 0.0 | 1.6 | 0.00 | 0.00 | 0.00 | 89 | 1015.2 |
| 20260506083119 | 18 | 112 | 0.0 | 3.2 | 0.00 | 0.00 | 0.00 | 89 | 1015.2 |
| 20260506082615 | 18 | 113 | 0.0 | 3.2 | 0.00 | 0.00 | 0.00 | 89 | 1015.2 |
| 20260506082111 | 19 | 118 | 0.0 | 3.2 | 0.00 | 0.00 | 0.00 | 88 | 1015.2 |
| 20260506081610 | 19 | 111 | 1.6 | 1.6 | 0.00 | 0.00 | 0.00 | 88 | 1015.2 |
| 20260506081107 | 19 | 109 | 0.0 | 1.6 | 0.00 | 0.00 | 0.00 | 88 | 1015.2 |
| 20260506080604 | 19 | 108 | 0.0 | 1.6 | 0.00 | 0.00 | 0.00 | 88 | 1015.2 |
| 20260506073044 | 19 | 112 | 0.0 | 3.2 | 0.00 | 0.00 | 0.00 | 87 | 1015.2 |
| 20260506072541 | 19 | 121 | 0.0 | 1.6 | 0.00 | 0.00 | 0.00 | 87 | 1015.2 |
| 20260506072039 | 19 | 117 | 0.0 | 3.2 | 0.00 | 0.00 | 0.00 | 87 | 1015.2 |
| 20260506071537 | 19 | 117 | 0.0 | 3.2 | 0.00 | 0.00 | 0.00 | 87 | 1015.5 |
| 20260506071034 | 19 | 109 | 0.0 | 4.8 | 0.00 | 0.00 | 0.00 | 87 | 1015.5 |
| 20260506070531 | 20 | 132 | 3.2 | 4.8 | 0.00 | 0.00 | 0.00 | 86 | 1015.2 |
| 20260506062509 | 20 | 129 | 3.2 | 4.8 | 0.00 | 0.00 | 0.00 | 84 | 1015.9 |
| 20260506062005 | 20 | 131 | 3.2 | 8.0 | 0.00 | 0.00 | 0.00 | 84 | 1015.9 |
| 20260506061501 | 20 | 130 | 3.2 | 8.0 | 0.00 | 0.00 | 0.00 | 84 | 1015.5 |
| 20260506060959 | 20 | 149 | 3.2 | 9.7 | 0.00 | 0.00 | 0.00 | 83 | 1015.9 |
| 20260506060457 | 20 | 137 | 3.2 | 9.7 | 0.00 | 0.00 | 0.00 | 83 | 1015.9 |
| 20260506050926 | 20 | 154 | 3.2 | 17.7 | 0.00 | 0.00 | 0.00 | 79 | 1016.2 |
| 20260506050424 | 20 | 218 | 9.7 | 24.1 | 0.00 | 0.00 | 0.00 | 79 | 1016.2 |
| 20260506044914 | 20 | 169 | 12.9 | 16.1 | 0.00 | 0.00 | 0.00 | 78 | 1015.9 |
| 20260506044412 | 20 | 181 | 9.7 | 17.7 | 0.00 | 0.00 | 0.00 | 78 | 1016.2 |
| 20260506043909 | 20 | 163 | 11.3 | 17.7 | 0.00 | 0.00 | 0.00 | 77 | 1016.2 |
| 20260506043406 | 20 | 176 | 9.7 | 17.7 | 0.00 | 0.00 | 0.00 | 76 | 1016.2 |
| 20260506042904 | 20 | 172 | 9.7 | 17.7 | 0.00 | 0.00 | 0.00 | 76 | 1016.2 |
| 20260506042403 | 21 | 173 | 11.3 | 20.9 | 0.00 | 0.00 | 0.00 | 75 | 1016.2 |
| 20260506041901 | 21 | 175 | 12.9 | 20.9 | 0.00 | 0.00 | 0.00 | 75 | 1016.2 |
| 20260506041358 | 21 | 168 | 9.7 | 25.7 | 0.00 | 0.00 | 0.00 | 75 | 1016.2 |
| 20260506040855 | 21 | 185 | 14.5 | 25.7 | 0.00 | 0.00 | 0.00 | 74 | 1016.6 |
| 20260506040352 | 21 | 168 | 12.9 | 24.1 | 0.00 | 0.00 | 0.00 | 74 | 1016.2 |
| 20260506035848 | 21 | 161 | 12.9 | 22.5 | 0.00 | 0.00 | 0.00 | 74 | 1016.6 |
| 20260506035346 | 21 | 170 | 14.5 | 22.5 | 0.00 | 0.00 | 0.00 | 74 | 1016.2 |
| 20260506034843 | 21 | 166 | 12.9 | 22.5 | 0.00 | 0.00 | 0.00 | 73 | 1016.6 |
| 20260506034340 | 21 | 181 | 14.5 | 20.9 | 0.00 | 0.00 | 0.00 | 73 | 1016.6 |
| 20260506033837 | 21 | 181 | 16.1 | 22.5 | 0.00 | 0.00 | 0.00 | 73 | 1016.6 |
| 20260506033334 | 20 | 181 | 14.5 | 22.5 | 0.00 | 0.00 | 0.00 | 73 | 1016.6 |
| 20260506032831 | 20 | 184 | 16.1 | 20.9 | 0.00 | 0.00 | 0.00 | 73 | 1016.6 |
| 20260506032328 | 20 | 182 | 11.3 | 20.9 | 0.00 | 0.00 | 0.00 | 72 | 1016.6 |
| 20260506031825 | 20 | 164 | 11.3 | 25.7 | 0.00 | 0.00 | 0.00 | 72 | 1016.6 |
| 20260506031322 | 20 | 188 | 12.9 | 25.7 | 0.00 | 0.00 | 0.00 | 72 | 1016.6 |
| 20260506030819 | 20 | 171 | 14.5 | 20.9 | 0.00 | 0.00 | 0.00 | 72 | 1016.2 |
| 20260506030317 | 20 | 147 | 17.7 | 17.7 | 0.00 | 0.00 | 0.00 | 72 | 1016.2 |
| 20260506025814 | 20 | 164 | 14.5 | 22.5 | 0.00 | 0.00 | 0.00 | 72 | 1016.6 |
| 20260506025311 | 20 | 187 | 14.5 | 22.5 | 0.00 | 0.00 | 0.00 | 72 | 1016.6 |
| 20260506024808 | 20 | 169 | 14.5 | 20.9 | 0.00 | 0.00 | 0.00 | 72 | 1016.6 |
| 20260506024304 | 20 | 164 | 11.3 | 17.7 | 0.00 | 0.00 | 0.00 | 73 | 1016.2 |
| 20260506023800 | 20 | 150 | 14.5 | 17.7 | 0.00 | 0.00 | 0.00 | 73 | 1016.6 |
| 20260506023258 | 20 | 154 | 12.9 | 16.1 | 0.00 | 0.00 | 0.00 | 73 | 1016.2 |
| 20260506022754 | 20 | 150 | 6.4 | 16.1 | 0.00 | 0.00 | 0.00 | 73 | 1016.2 |
| 20260506022252 | 20 | 170 | 9.7 | 14.5 | 0.00 | 0.00 | 0.00 | 73 | 1016.6 |
| 20260506021750 | 20 | 156 | 8.0 | 16.1 | 0.00 | 0.00 | 0.00 | 73 | 1016.2 |
| 20260506021247 | 20 | 170 | 12.9 | 17.7 | 0.00 | 0.00 | 0.00 | 72 | 1016.2 |
| 20260506020743 | 20 | 135 | 8.0 | 17.7 | 0.00 | 0.00 | 0.00 | 72 | 1016.2 |
| 20260506020241 | 20 | 160 | 6.4 | 16.1 | 0.00 | 0.00 | 0.00 | 72 | 1016.2 |
| 20260506015738 | 20 | 159 | 8.0 | 16.1 | 0.00 | 0.00 | 0.00 | 72 | 1015.9 |
| 20260506015236 | 20 | 157 | 9.7 | 16.1 | 0.00 | 0.00 | 0.00 | 72 | 1015.9 |
| 20260506014732 | 20 | 139 | 9.7 | 16.1 | 0.00 | 0.00 | 0.00 | 72 | 1015.9 |
| 20260506014229 | 20 | 132 | 8.0 | 16.1 | 0.00 | 0.00 | 0.00 | 72 | 1015.9 |
| 20260506013726 | 20 | 167 | 8.0 | 17.7 | 0.00 | 0.00 | 0.00 | 72 | 1015.9 |
| 20260506013223 | 20 | 162 | 9.7 | 17.7 | 0.00 | 0.00 | 0.00 | 72 | 1016.2 |
| 20260506012719 | 20 | 163 | 6.4 | 16.1 | 0.00 | 0.00 | 0.00 | 72 | 1016.2 |
| 20260506012217 | 20 | 159 | 9.7 | 16.1 | 0.00 | 0.00 | 0.00 | 72 | 1016.2 |
| 20260506011714 | 20 | 171 | 8.0 | 14.5 | 0.00 | 0.00 | 0.00 | 72 | 1016.2 |
| 20260506011210 | 20 | 160 | 6.4 | 14.5 | 0.00 | 0.00 | 0.00 | 71 | 1016.2 |
| 20260506010709 | 20 | 165 | 8.0 | 14.5 | 0.00 | 0.00 | 0.00 | 71 | 1015.9 |
| 20260506010206 | 20 | 161 | 11.3 | 14.5 | 0.00 | 0.00 | 0.00 | 71 | 1015.9 |
| 20260506005702 | 20 | 147 | 11.3 | 11.3 | 0.00 | 0.00 | 0.00 | 71 | 1016.2 |
| 20260506005159 | 20 | 156 | 8.0 | 11.3 | 0.00 | 0.00 | 0.00 | 71 | 1015.9 |
| 20260506004655 | 20 | 150 | 6.4 | 12.9 | 0.00 | 0.00 | 0.00 | 70 | 1015.5 |
| 20260506004153 | 20 | 145 | 6.4 | 12.9 | 0.00 | 0.00 | 0.00 | 70 | 1015.9 |
| 20260506003649 | 20 | 132 | 9.7 | 14.5 | 0.00 | 0.00 | 0.00 | 69 | 1015.5 |
| 20260506003145 | 20 | 153 | 6.4 | 20.9 | 0.00 | 0.00 | 0.00 | 69 | 1015.9 |
| 20260506002641 | 20 | 151 | 9.7 | 20.9 | 0.00 | 0.00 | 0.00 | 69 | 1015.5 |
| 20260506002138 | 20 | 129 | 6.4 | 20.9 | 0.00 | 0.00 | 0.00 | 68 | 1015.5 |
| 20260506001633 | 20 | 107 | 11.3 | 22.5 | 0.00 | 0.00 | 0.00 | 68 | 1015.5 |
| 20260506001131 | 20 | 163 | 11.3 | 22.5 | 0.00 | 0.00 | 0.00 | 68 | 1015.5 |
| 20260506000628 | 20 | 145 | 9.7 | 17.7 | 0.00 | 0.00 | 0.00 | 68 | 1015.5 |
| 20260506000125 | 21 | 154 | 9.7 | 17.7 | 0.00 | 0.00 | 0.00 | 67 | 1015.5 |
| 20260505235623 | 21 | 163 | 9.7 | 20.9 | 0.00 | 0.00 | 0.00 | 67 | 1015.5 |
| 20260505235120 | 21 | 167 | 9.7 | 22.5 | 0.00 | 0.00 | 0.00 | 67 | 1015.5 |
| 20260505234617 | 21 | 154 | 11.3 | 25.7 | 0.00 | 0.00 | 0.00 | 66 | 1015.9 |
| 20260505234114 | 21 | 169 | 19.3 | 25.7 | 0.00 | 0.00 | 0.00 | 66 | 1015.5 |
| 20260505233611 | 21 | 206 | 14.5 | 24.1 | 0.00 | 0.00 | 0.00 | 65 | 1015.5 |
| 20260505233109 | 21 | 148 | 12.9 | 24.1 | 0.00 | 0.00 | 0.00 | 65 | 1015.5 |
| 20260505232606 | 21 | 164 | 19.3 | 24.1 | 0.00 | 0.00 | 0.00 | 64 | 1015.5 |
| 20260505232104 | 21 | 157 | 11.3 | 25.7 | 0.00 | 0.00 | 0.00 | 63 | 1015.5 |
| 20260505231600 | 21 | 161 | 16.1 | 25.7 | 0.00 | 0.00 | 0.00 | 62 | 1015.5 |
| 20260505231059 | 22 | 173 | 12.9 | 24.1 | 0.00 | 0.00 | 0.00 | 62 | 1015.9 |
| 20260505230556 | 22 | 182 | 8.0 | 27.4 | 0.00 | 0.00 | 0.00 | 61 | 1015.9 |
| 20260505230052 | 22 | 170 | 19.3 | 32.2 | 0.00 | 0.00 | 0.00 | 59 | 1015.9 |
| 20260505225549 | 22 | 180 | 14.5 | 32.2 | 0.00 | 0.00 | 0.00 | 58 | 1015.9 |
| 20260505225045 | 22 | 187 | 17.7 | 24.1 | 0.00 | 0.00 | 0.00 | 59 | 1015.5 |
| 20260505224542 | 22 | 147 | 16.1 | 24.1 | 0.00 | 0.00 | 0.00 | 58 | 1015.5 |
| 20260505224040 | 22 | 141 | 12.9 | 27.4 | 0.00 | 0.00 | 0.00 | 57 | 1015.5 |
| 20260505223537 | 23 | 179 | 11.3 | 27.4 | 0.00 | 0.00 | 0.00 | 55 | 1015.5 |
| 20260505223033 | 23 | 183 | 20.9 | 27.4 | 0.00 | 0.00 | 0.00 | 55 | 1015.9 |
| 20260505222529 | 23 | 133 | 12.9 | 29.0 | 0.00 | 0.00 | 0.00 | 56 | 1015.5 |
| 20260505222025 | 23 | 152 | 19.3 | 29.0 | 0.00 | 0.00 | 0.00 | 57 | 1015.5 |
| 20260505221523 | 23 | 177 | 19.3 | 29.0 | 0.00 | 0.00 | 0.00 | 58 | 1015.9 |
| 20260505221019 | 22 | 156 | 14.5 | 35.4 | 0.00 | 0.00 | 0.00 | 58 | 1015.9 |
| 20260505220517 | 23 | 152 | 17.7 | 35.4 | 0.00 | 0.00 | 0.00 | 59 | 1015.5 |
| 20260505220014 | 23 | 196 | 19.3 | 33.8 | 0.00 | 0.00 | 0.00 | 61 | 1015.9 |
| 20260505215512 | 22 | 166 | 24.1 | 32.2 | 0.00 | 0.00 | 0.00 | 60 | 1015.5 |
| 20260505215010 | 23 | 172 | 19.3 | 32.2 | 0.00 | 0.00 | 0.00 | 60 | 1015.9 |
| 20260505214508 | 23 | 174 | 16.1 | 32.2 | 0.00 | 0.00 | 0.00 | 60 | 1015.9 |
| 20260505214004 | 23 | 169 | 19.3 | 35.4 | 0.00 | 0.00 | 0.00 | 59 | 1015.5 |
| 20260505213502 | 23 | 154 | 14.5 | 35.4 | 0.00 | 0.00 | 0.00 | 59 | 1015.5 |
| 20260505212958 | 23 | 186 | 14.5 | 29.0 | 0.00 | 0.00 | 0.00 | 59 | 1015.9 |
| 20260505212455 | 23 | 160 | 17.7 | 29.0 | 0.00 | 0.00 | 0.00 | 59 | 1015.9 |
| 20260505211951 | 23 | 136 | 12.9 | 27.4 | 0.00 | 0.00 | 0.00 | 59 | 1015.9 |
| 20260505211449 | 23 | 125 | 16.1 | 29.0 | 0.00 | 0.00 | 0.00 | 60 | 1015.9 |
| 20260505210945 | 23 | 189 | 17.7 | 29.0 | 0.00 | 0.00 | 0.00 | 60 | 1015.9 |
| 20260505210442 | 23 | 171 | 20.9 | 33.8 | 0.00 | 0.00 | 0.00 | 60 | 1015.9 |
| 20260505205939 | 23 | 130 | 14.5 | 33.8 | 0.00 | 0.00 | 0.00 | 60 | 1015.9 |
| 20260505205438 | 23 | 196 | 16.1 | 32.2 | 0.00 | 0.00 | 0.00 | 60 | 1015.9 |